Content
SEND FEEDBACK

Daily
Averages
Monthly
Summary
United States of America

PYGA BEACH, GUAM


Home > North America > United States > Guam
Elevation: 20 feet     Latitude: 13 17N     Longitude: 144 39E

WEATHER
 
SELECT A DAY
Number of Records: 357,336;   Date Range: 1/1/95 - 12/26/14
 
SHARE

PRINT THIS DATA

[ ← Previous Day ]
WEATHER ALMANAC - MARCH 6, 2014
[ Next Day → ]
[ °C ]   °F
Weather ElementAverageHighLow
Temperature77.7 °F81 °F (1:58 pm)74.3 °F (2:58 am)
Dewpoint70.9 °F73.4 °F (1:43 am)69.3 °F (9:58 pm)
Humidity79.7 %94 % (1:43 am)70 % (1:03 pm)
Barometer29.79 in29.85 in (9:13 am)29.73 in (3:55 pm)
Wind Speed8.9 mph19.6 mph (11:58 am)
Wind Gust24.2 mph (1:03 pm)
Weather ElementAverage
Visibility10 mi
Wind DirectionSSE (171.8 °)

Weather ElementTotal
Precipitation---
Cooling Degree Days12.7 (Base 65)
Growing Degree Days27.7 (Base 50)
Averaged from 44 records on March 6, 2014
WEATHER CONDITIONS BREAKOUT
WIND DIRECTION BREAKOUT
WEATHER BY HOUR - MARCH 6, 2014
[ °C ]   °F
Local TimeTemperatureDewpointHumidityBarometerVisibilityWind DirectionWind SpeedGust SpeedPrecipitationEventsConditions
1:28 AM77.0 °F71.6 °F83 %29.79 in10.0 miNNW (330°)10.4 mphMostly Cloudy
1:43 AM75.2 °F73.4 °F94 %29.79 in10.0 miNorth (360°)1.2 mph18.4 mphMostly Cloudy
1:48 AM75.2 °F71.6 °F89 %29.79 in10.0 miNorth (350°)2.3 mphMostly Cloudy
1:58 AM74.5 °F72.5 °F94 %29.75 in10.0 miNNW (340°)5.8 mphScattered Clouds
2:58 AM74.3 °F70.3 °F87 %29.75 in10.0 miVariable4.6 mphScattered Clouds
3:58 AM74.5 °F70.5 °F87 %29.75 in10.0 miNorth (10°)4.6 mphMostly Cloudy
4:43 AM75.2 °F73.4 °F94 %29.77 in10.0 miVariable3.5 mphMostly Cloudy
4:48 AM75.2 °F71.6 °F89 %29.77 in10.0 miNorth (350°)3.5 mphScattered Clouds
4:58 AM75.2 °F71.6 °F89 %29.75 in10.0 miNorth (360°)3.5 mphMostly Cloudy
5:03 AM75.2 °F71.6 °F89 %29.78 in10.0 miNorth (360°)2.3 mphMostly Cloudy
5:58 AM75.9 °F70.7 °F84 %29.75 in10.0 miVariable3.5 mphScattered Clouds
6:07 AM75.2 °F69.8 °F83 %29.79 in10.0 miNorth (360°)8.1 mphPartly Cloudy
6:58 AM75.7 °F71.4 °F86 %29.78 in10.0 miVariable4.6 mphClear
7:43 AM77.0 °F71.6 °F83 %29.83 in10.0 miNorth (360°)3.5 mphMostly Cloudy
7:53 AM77.0 °F71.6 °F83 %29.83 in10.0 miNorth (350°)4.6 mphScattered Clouds
7:58 AM76.6 °F70.5 °F81 %29.81 in10.0 miVariable2.3 mphScattered Clouds
8:58 AM79.2 °F70.9 °F76 %29.81 in10.0 miNorth (360°)2.3 mphScattered Clouds
9:13 AM78.8 °F71.6 °F78 %29.85 in10.0 miVariable1.2 mphMostly Cloudy
9:23 AM80.6 °F71.6 °F74 %29.85 in10.0 miVariable1.2 mphMostly Cloudy
9:28 AM80.6 °F71.6 °F74 %29.85 in10.0 miCalmMostly Cloudy
9:43 AM80.6 °F71.6 °F74 %29.85 in10.0 miNorth (360°)1.2 mphScattered Clouds
9:58 AM80.4 °F70.2 °F71 %29.82 in10.0 miNorth (360°)2.3 mphPartly Cloudy
10:58 AM80.4 °F70.7 °F72 %29.81 in10.0 miNorth (360°)17.3 mph23.0 mphMostly Cloudy
11:58 AM80.6 °F71.6 °F74 %29.78 in10.0 miNorth (360°)19.6 mphScattered Clouds
12:58 PM80.6 °F71.4 °F73 %29.77 in10.0 miNorth (360°)19.6 mph23.0 mphMostly Cloudy
1:03 PM80.6 °F69.8 °F70 %29.80 in10.0 miNorth (360°)18.4 mph24.2 mphScattered Clouds
1:58 PM81.0 °F71.1 °F72 %29.75 in10.0 miNorth (10°)16.1 mph23.0 mphPartly Cloudy
2:58 PM80.8 °F70.5 °F71 %29.74 in10.0 miNorth (360°)16.1 mph24.2 mphClear
3:55 PM79.9 °F70.7 °F73 %29.73 in10.0 miNorth (10°)16.1 mph19.6 mphScattered Clouds
4:24 PM80.6 °F69.8 °F70 %29.79 in10.0 miNorth (360°)13.8 mphMostly Cloudy
4:44 PM78.8 °F69.8 °F74 %29.78 in10.0 miNorth (360°)17.3 mphScattered Clouds
4:49 PM78.8 °F69.8 °F74 %29.78 in10.0 miNorth (10°)15.0 mph19.6 mphScattered Clouds
4:58 PM79.5 °F70.2 °F73 %29.75 in10.0 miNorth (10°)12.7 mph19.6 mphScattered Clouds
5:58 PM78.4 °F70.2 °F76 %29.76 in10.0 miNorth (10°)10.4 mphScattered Clouds
6:53 PM77.0 °F69.8 °F78 %29.81 in10.0 miNNE (30°)9.2 mph17.3 mphMostly Cloudy
6:58 PM77.7 °F70.5 °F78 %29.78 in10.0 miNNE (30°)12.7 mphMostly Cloudy
7:03 PM77.0 °F69.8 °F78 %29.81 in10.0 miNNE (30°)16.1 mph19.6 mphScattered Clouds
7:33 PM77.0 °F71.6 °F83 %29.82 in10.0 miNE (50°)13.8 mphMostly Cloudy
7:38 PM77.0 °F69.8 °F78 %29.83 in10.0 miNE (40°)12.7 mphScattered Clouds
7:58 PM77.2 °F70.3 °F79 %29.81 in10.0 miNE (50°)12.7 mphScattered Clouds
8:58 PM77.0 °F69.8 °F78 %29.82 in10.0 miNE (40°)11.5 mphScattered Clouds
9:58 PM76.6 °F69.3 °F78 %29.83 in10.0 miNE (40°)10.4 mphClear
10:58 PM76.6 °F69.8 °F79 %29.83 in10.0 miNE (40°)15.0 mphPartly Cloudy
11:58 PM76.5 °F70.7 °F82 %29.83 in10.0 miNNE (30°)9.2 mph17.3 mphScattered Clouds
Hourly data recorded from PGUA, located miles away from Pyga Beach, Guam







STORIES FROM OUR PARTNERS